Flag for Germany Weather past 2 weeks in Amberg, Bavaria, Germany

Now
32 °F

Light snow. Fog.


Feels Like: 28 °F
Forecast: 33 / 36 °F
Wind: 5 mph from West

Location: Hohenfels

Current Time: Jan 25, 2015 at 11:48:04 PM

Latest Report: Jan 25, 2015 at 10:58 PM


Visibility: 5 mi

Pressure: 30.38 "Hg

Humidity: 96%

Dew point: 31 °F

Location of AmbergLocation

Historic Weather in Amberg — Graph

°F

Amberg temperature yesterday

Maximum temperature yesterday: 32 °F (at 2:58 AM)
Minimum temperature yesterday: 29 °F (at 11:58 AM)
Average temperature yesterday: 31 °F

Past Weeks' High & Low Weather Summary

 TemperatureHumidityPressure
High52 °F (Jan 13, 2:58 PM)100% (Jan 15, 3:58 AM)30.41 "Hg (Jan 15, 3:58 AM)
Low23 °F (Jan 22, 4:58 AM)30% (Jan 13, 2:58 PM)29.75 "Hg (Jan 17, 2:59 AM)
Average34 °F87%30.04 "Hg
* Reported Jan 11 5:59 PM — Jan 25 10:58 PM, Amberg, Weather by CustomWeather, © 2014

Note: Actual official high and low records may vary slightly from our data, if they occured in-between our weather recording intervals... More about our weather records

Advertising

Amberg weather history for previous 24 hours

 ConditionsComfort  
Time TempWeatherWind HumidityBarometerVisibility
10:58 PM
Jan 25
32 °FLight snow. Fog.5 mph96%30.38 "Hg5 mi
10:02 PM32 °FLight snow. Ice fog.3 mph100%30.31 "Hg4 mi
8:58 PM32 °FLight snow. Overcast.3 mph93%30.40 "HgN/A
7:58 PM32 °FLight snow. Mostly cloudy.3 mph93%30.40 "HgN/A
6:58 PM34 °FLight snow. Overcast.5 mph87%30.41 "HgN/A
6:03 PM32 °FMostly cloudy.3 mph87%30.33 "HgN/A
5:58 PM33 °FMostly cloudy.5 mph85%30.41 "HgN/A
4:58 PM34 °FLight rain. Passing clouds.6 mph81%30.40 "HgN/A
3:58 PM35 °FCloudy.8 mph77%30.38 "HgN/A
2:58 PM36 °FOvercast.7 mph75%30.37 "HgN/A
1:58 PM36 °FOvercast.9 mph75%30.36 "HgN/A
12:58 PM35 °FMore clouds than sun.9 mph78%30.38 "HgN/A
11:58 AM35 °FOvercast.6 mph78%30.38 "HgN/A
10:58 AM34 °FOvercast.8 mph74%30.40 "HgN/A
9:58 AM34 °FOvercast.6 mph75%30.38 "HgN/A
8:58 AM32 °FPartly sunny.6 mph80%30.36 "HgN/A
7:58 AM32 °FOvercast.6 mph85%30.35 "HgN/A
6:58 AM32 °FPartly cloudy.7 mph87%30.32 "HgN/A
6:01 AM32 °FMostly cloudy.6 mph87%30.21 "HgN/A
5:04 AM32 °FLight snow. Mostly cloudy.6 mph87%30.20 "HgN/A
4:02 AM32 °FLight snow. Ice fog.6 mph87%30.18 "Hg5 mi
3:58 AM31 °FLight snow. Ice fog.5 mph91%30.26 "Hg4 mi
3:03 AM32 °FLight snow. Ice fog.3 mph87%30.17 "Hg6 mi
2:58 AM30 °FLight snow. Ice fog.3 mph93%30.25 "Hg6 mi
1:58 AM30 °FLight snow. Ice fog.6 mph93%30.24 "Hg6 mi
12:58 AM31 °FOvercast.8 mph83%30.23 "HgN/A
11:58 PM
Jan 24
31 °FOvercast.6 mph81%30.23 "HgN/A
Weather by CustomWeather, © 2014

See weather overviewHow to use our weather pages